Flag for Brazil Weather past 2 weeks in Maceió, Alagoas, Brazil

Now
72 °F

Partly sunny.


Feels Like: 65 °F
Forecast: 76 / 88 °F
Wind: 3 mph from Northeast

Location: Maceio Aeroporto

Current Time: Jan 30, 2015 at 6:36:00 AM

Latest Report: Jan 30, 2015 at 6:00 AM


Visibility: N/A

Pressure: 29.92 "Hg

Humidity: 100%

Dew point: 72 °F

Location of MaceióLocation

Historic Weather in Maceió — Graph

°F

Maceió temperature yesterday

Maximum temperature yesterday: 82 °F (at 12:00 PM)
Minimum temperature yesterday: 73 °F (at 1:00 AM)
Average temperature yesterday: 76 °F

Past Weeks' High & Low Weather Summary

 TemperatureHumidityPressure
High90 °F (Jan 16, 12:00 PM)100% (Jan 16, 6:00 AM)30.04 "Hg (Jan 16, 6:00 AM)
Low68 °F (Jan 26, 4:00 AM)33% (Jan 16, 1:00 PM)29.86 "Hg (Jan 20, 3:00 PM)
Average78 °F77%29.96 "Hg
* Reported Jan 15 5:00 AM — Jan 30 5:00 AM, Maceió, Weather by CustomWeather, © 2014

Note: Actual official high and low records may vary slightly from our data, if they occured in-between our weather recording intervals... More about our weather records

Advertising

Maceió weather history for previous 24 hours

 ConditionsComfort  
Time TempWeatherWind HumidityBarometerVisibility
5:00 AM
Jan 30
72 °FPartly cloudy.3 mph94%29.92 "HgN/A
4:00 AM72 °FPassing clouds.No wind94%29.92 "HgN/A
3:00 AM72 °FPassing clouds.5 mph94%29.92 "HgN/A
2:00 AM72 °FPassing clouds.3 mph88%29.92 "HgN/A
1:00 AM73 °FPartly cloudy.5 mph83%29.92 "HgN/A
12:00 AM72 °FPartly cloudy.10 mph88%29.95 "HgN/A
11:00 PM
Jan 29
73 °FPassing clouds.6 mph89%29.98 "HgN/A
10:00 PM73 °FPassing clouds.3 mph89%29.98 "HgN/A
9:00 PM75 °FPassing clouds.3 mph89%29.98 "HgN/A
8:00 PM75 °FPassing clouds.6 mph83%29.95 "HgN/A
7:00 PM75 °FPassing clouds.7 mph83%29.92 "HgN/A
6:00 PM77 °FPassing clouds.7 mph79%29.92 "HgN/A
5:00 PM77 °FScattered clouds.12 mph79%29.89 "HgN/A
4:00 PM79 °FScattered clouds.13 mph74%29.89 "HgN/A
3:00 PM81 °FScattered clouds.14 mph70%29.86 "HgN/A
2:00 PM81 °FScattered clouds.5 mph70%29.89 "HgN/A
1:00 PM79 °FScattered showers. Broken clouds.7 mph79%29.89 "HgN/A
12:00 PM82 °FScattered clouds.5 mph66%29.92 "HgN/A
11:00 AM79 °FBroken clouds.5 mph79%29.95 "HgN/A
10:00 AM75 °FLight rain. Partly sunny.6 mph94%29.98 "Hg2 mi
9:00 AM77 °FLight rain. Broken clouds.7 mph89%29.95 "Hg2 mi
8:00 AM79 °FSleet. Partly sunny.2 mph79%29.95 "HgN/A
7:00 AM75 °FPassing clouds.3 mph89%29.95 "HgN/A
6:00 AM73 °FPassing clouds.2 mph94%29.92 "HgN/A
Weather by CustomWeather, © 2014

See weather overviewHow to use our weather pages